EW5790 Weather Reports


Display with metric or nautical units.
time (UTC)temp
F
wind
direction
speed
MPH
gust
MPH
rain 1hr
in
rain 24hr
in
rain mn
in
humidity
%
barometer
mb
20260906131555 73 123 0.0 0.0 0.00 0.37 0.01 1 1013.2
20260906130059 72 96 0.0 0.0 0.00 0.37 0.01 1 1013.1
20260906124545 71 95 0.0 0.0 0.00 0.37 0.01 1 1013.0
20260906123043 70 96 0.0 0.0 0.00 0.37 0.01 1 1013.0
20260906121542 69 96 0.0 0.0 0.00 0.37 0.01 1 1012.7
20260906120032 69 96 0.0 0.0 0.00 0.37 0.01 1 1012.5
20260906114533 69 96 0.0 0.0 0.00 0.37 0.01 1 1012.3
20260906113041 69 96 0.0 0.0 0.00 0.37 0.01 1 1012.3
20260906111522 69 96 0.0 0.0 0.00 0.37 0.01 1 1012.2
20260906110018 69 96 0.0 0.0 0.00 0.37 0.01 1 1012.0
20260906104512 69 96 0.0 0.0 0.00 0.37 0.01 1 1011.9
20260906103007 69 96 0.0 0.0 0.00 0.37 0.01 1 1011.8
20260906101503 69 96 0.0 0.0 0.00 0.37 0.01 1 1011.9
20260906100057 69 96 0.0 0.0 0.00 0.37 0.01 1 1011.7
20260906094554 69 96 0.0 0.0 0.00 0.37 0.01 1 1011.5
20260906093049 70 96 0.0 0.0 0.00 0.37 0.01 1 1011.6
20260906091545 70 96 0.0 0.0 0.00 0.37 0.01 1 1011.4
20260906090042 70 96 0.0 0.0 0.00 0.37 0.01 1 1011.2
20260906084536 70 96 0.0 0.0 0.00 0.37 0.01 1 1011.3
20260906083032 70 96 0.0 0.0 0.01 0.37 0.01 1 1011.5
20260906081540 70 96 0.0 0.0 0.01 0.37 0.01 1 1011.4
20260906080022 70 96 0.0 0.0 0.01 0.37 0.01 1 1011.1
20260906074521 70 96 0.0 0.0 0.01 0.37 0.01 1 1011.2
20260906073014 70 96 0.0 0.0 0.00 0.36 0.00 1 1011.2
20260906071510 70 96 0.0 0.0 0.00 0.36 0.00 1 1011.3
20260906070006 71 96 0.0 0.0 0.00 0.36 0.00 1 1011.3
20260906064503 71 96 0.0 0.0 0.00 0.36 0.00 1 1011.3
20260906063058 71 96 0.0 0.0 0.00 0.36 0.00 1 1011.4
20260906061557 71 96 0.0 0.0 0.00 0.36 0.00 1 1011.5
20260906060048 71 96 0.0 0.0 0.00 0.36 0.00 1 1011.6
20260906054544 71 96 0.0 0.0 0.00 0.36 0.00 1 1011.8
20260906053040 71 96 0.0 0.0 0.00 0.36 0.00 1 1011.9
20260906051539 71 96 0.0 0.0 0.00 0.36 0.00 1 1012.0
20260906050042 72 96 0.0 0.0 0.00 0.36 0.00 1 1012.0
20260906044535 72 309 0.0 0.0 0.00 0.36 0.00 1 1011.9
20260906043022 72 309 0.0 0.0 0.00 0.36 0.00 1 1012.0
20260906041518 72 309 0.0 0.0 0.01 0.36 0.00 1 1011.7
20260906040023 72 309 0.0 0.0 0.01 0.36 0.00 1 1012.1
20260906034510 72 100 0.0 0.0 0.01 0.36 0.36 1 1011.8
20260906033013 72 100 0.0 0.0 0.01 0.36 0.36 1 1011.8
20260906031500 72 100 0.0 0.0 0.00 0.35 0.35 1 1011.5
20260906030057 72 100 0.0 0.0 0.00 0.35 0.35 1 1011.4
20260906024551 72 100 0.0 0.0 0.01 0.35 0.35 1 1011.4
20260906023050 72 100 0.0 0.0 0.01 0.35 0.35 1 1011.4
20260906021544 72 100 0.0 0.0 0.02 0.35 0.35 1 1011.2
20260906020039 72 100 0.0 0.0 0.01 0.34 0.34 1 1010.7
20260906014536 72 100 0.0 0.0 0.02 0.34 0.34 1 1010.6
20260906013030 72 100 0.0 0.0 0.03 0.34 0.34 1 1010.8
20260906011533 72 100 0.0 0.0 0.03 0.33 0.33 1 1010.8
20260906010021 72 100 0.0 0.0 0.04 0.33 0.33 1 1010.6
20260906004516 72 100 0.0 0.0 0.05 0.32 0.32 1 1010.5
20260906003013 72 100 0.0 0.0 0.06 0.31 0.31 1 1010.7
20260906001509 72 100 0.0 0.0 0.07 0.30 0.30 1 1011.0
20260906000004 72 100 0.0 0.0 0.09 0.28 0.28 1 1010.9
20260905234559 72 120 0.0 0.0 0.10 0.27 0.27 1 1011.0
20260905233055 72 349 0.0 0.0 0.12 0.25 0.25 1 1010.9
20260905231550 72 355 0.0 0.0 0.15 0.23 0.23 1 1010.7
20260905230051 73 306 0.0 0.0 0.19 0.20 0.20 6 1011.3
20260905224559 73 90 0.0 0.0 0.17 0.17 0.17 11 1011.2
20260905223037 73 134 0.0 0.0 0.13 0.13 0.13 13 1011.0
20260905221537 77 133 0.0 1.0 0.08 0.08 0.08 49 1011.4
20260905220027 88 273 0.0 0.0 0.01 0.01 0.01 62 1010.7
20260905214523 96 230 0.0 0.0 0.00 0.05 0.00 49 1010.1
20260905213018 95 165 0.0 0.0 0.00 0.05 0.00 50 1009.9
20260905211515 96 275 0.0 0.0 0.00 0.05 0.00 49 1010.0
20260905210010 95 332 0.0 0.0 0.00 0.05 0.00 49 1010.2
20260905204507 95 276 0.0 0.0 0.00 0.10 0.00 50 1010.2
20260905203002 95 297 0.0 0.0 0.00 0.10 0.00 50 1010.5
20260905201600 96 269 0.0 0.0 0.00 0.10 0.00 50 1010.7
20260905200058 96 347 0.0 0.0 0.00 0.10 0.00 49 1010.9
20260905194548 95 332 0.0 0.0 0.00 0.10 0.00 50 1011.2
20260905193043 94 288 0.0 0.0 0.00 0.10 0.00 51 1011.3
20260905191539 94 46 0.0 0.0 0.00 0.10 0.00 51 1011.5
20260905190035 94 298 0.0 0.0 0.00 0.10 0.00 53 1011.8
20260905184533 93 172 0.0 0.0 0.00 0.11 0.00 54 1012.1
20260905183026 92 280 0.0 0.0 0.00 0.11 0.00 55 1012.1
20260905181522 92 263 0.0 0.0 0.00 0.11 0.00 54 1012.5
20260905180017 91 88 0.0 0.0 0.00 0.11 0.00 56 1012.7
20260905174512 90 275 0.0 0.0 0.00 0.11 0.00 59 1012.8
20260905173011 90 119 0.0 0.0 0.00 0.11 0.00 58 1013.0
20260905171503 89 121 0.0 0.0 0.00 0.11 0.00 59 1013.2
20260905170105 88 133 0.0 0.0 0.00 0.11 0.00 59 1013.3
20260905170002 88 133 0.0 0.0 0.00 0.11 0.00 59 1013.3
20260905164555 88 58 0.0 0.0 0.00 0.11 0.00 61 1013.4
20260905163050 87 117 0.0 0.0 0.00 0.11 0.00 62 1013.5
20260905161546 86 134 0.0 0.0 0.00 0.11 0.00 62 1013.5
20260905160109 85 126 0.0 0.0 0.00 0.11 0.00 62 1013.6
20260905154540 85 69 0.0 0.0 0.00 0.11 0.00 63 1013.8
20260905153032 83 74 0.0 0.0 0.00 0.11 0.00 63 1014.2
20260905151534 83 148 0.0 0.0 0.00 0.11 0.00 63 1014.2
20260905150025 82 141 0.0 0.0 0.00 0.11 0.00 61 1014.4
20260905144520 82 143 0.0 0.0 0.00 0.11 0.00 56 1014.4
20260905143017 81 21 0.0 0.0 0.00 0.11 0.00 49 1014.6
20260905141513 79 124 0.0 0.0 0.00 0.11 0.00 12 1014.3
20260905140007 79 296 0.0 0.0 0.00 0.11 0.00 1 1014.4
20260905134503 78 140 0.0 0.0 0.00 0.11 0.00 1 1013.8
20260905133058 76 140 0.0 0.0 0.00 0.11 0.00 1 1013.8